www.pogodaiklimat.ru

Погода и климат >> Архив погоды >> Канада >> Borden


ПОГОДА в Borden

  • Прогноз погоды в Borden
  • Монитор погоды в Borden
  • Климат города

АРХИВ ПОГОДЫ в Borden

Время (UTC), дата Ветер
(напр.,м/с)
 
Видим.   Явления Облачность Т
(С)
Тd
(С)
f
(%)
Тe
(С)
Тes
(С)
Комфортность P
(гПа)
Po
(гПа)
Тmin
(С)
Tmax
(С)
R
(мм)
R24
(мм)
S
(см)
03 16.07 Ю 1 14 км ясно +20.9 +15.3 70 +25 +25 комфорт 1014.3 988.1
06 16.07 Ю 1 14 км ясно +19.1 +16.5 85 +22 +22 комфорт 1013.7 987.6
09 16.07 Ю 1 14 км ясно +19.3 +17.6 90 +22 +22 комфорт 1013.3 987.2
12 16.07 Ю 3 14 км 5/5 1500 м
[]
+24.7 +19.8 74 +30 +32 очень
душно
1013.1 987.1 +17.7
15 16.07 ЮЗ 7 8000 м дождь 10/10 300 м
[]
+21.2 +18.9 87 +26 +26 душно 1013.7 987.4
18 16.07 ЮВ 2 14 км {осадки} ясно +24.3 +21.6 85 +31 +49 очень
душно
1011.6 985.4 +17.7 +28.8 2
21 16.07 Ю 6 14 км слаб. дождь 5/5 300 м
[]
+24.4 +22.1 87 +32 +33 очень
душно
1010.3 984.1 1
00 17.07 ЮЗ 4 14 км слаб. дождь 5/5 1000 м
[]
+24.2 +19.0 73 +29 +29 душно 1009.6 983.6 +17.7 +28.9 1
03 17.07 штиль 0 14 км ясно +20.5 +19.1 92 +24 +24 комфорт 1010.2 984.0
06 17.07 СЗ 2 14 км 10/10 1500 м
[]
+21.2 +17.4 79 +25 +25 комфорт 1010.1 984.0 +17.7 +28.9 150
09 17.07 З 2 14 км 9/9 1500 м
[]
+17.0 +12.7 76 +18 +18 1010.4 984.2
12 17.07 З 3 14 км 5/0
[]
+20.2 +12.1 60 +22 +24 комфорт 1012.1 985.9 +16.5 +28.9
18 17.07 С 5 14 км ясно +24.9 +13.1 48 +27 +38 жарко 1012.5 986.3
21 17.07 С 7 14 км ясно +23.3 +11.4 47 +26 +28 жарко 1013.3 987.0
03 18.07 СЗ 2 14 км ясно +17.5 +11.7 69 +18 +18 1015.5 989.1
06 18.07 СЗ 2 14 км ясно +15.7 +13.1 85 +16 +16 1016.4 990.0 20
09 18.07 СЗ 3 14 км 9/9 1000 м
[]
+13.8 +11.8 88 +13 +13 1018.0 991.5
15 18.07 С 2 14 км 9/9 1000 м
[]
+20.1 +9.0 49 +22 +23 комфорт 1019.5 993.0
18 18.07 СЗ 3 14 км ясно +22.3 +5.8 34 +23 +38 комфорт 1018.7 992.2
03 19.07 З 1 14 км ясно +10.0 +6.6 79 +10 +10 1018.5 991.8
06 19.07 Ю 1 14 км ясно +7.5 +6.1 91 +6 +6 1018.7 992.0
12 19.07 штиль 0 14 км ясно +13.8 +9.6 76 +13 +17 1020.0 993.3
15 19.07 ЮЗ 2 14 км {осадки} ясно +21.8 +8.1 41 +23 +38 комфорт 1019.7 993.0 0.5
18 19.07 В 3 14 км {осадки} ясно +24.8 +9.4 38 +26 +42 жарко 1018.6 992.0 0.5
21 19.07 ЮВ 4 14 км ясно +27.2 +10.5 35 +28 +34 жарко 1017.4 990.8
00 20.07 ЮВ 4 14 км ясно +25.1 +12.4 45 +27 +27 жарко 1016.8 990.4 +28.5
03 20.07 ЮВ 3 14 км ясно +18.6 +11.6 64 +19 +19 1016.8 990.4
06 20.07 Ю 1 14 км ясно +13.4 +11.1 86 +14 +14 1017.1 990.6
09 20.07 штиль 0 14 км ясно +10.4 +9.7 95 +10 +10 1016.8 990.3
12 20.07 Ю 2 14 км 5/0
[]
+18.8 +15.4 81 +21 +23 комфорт 1016.4 990.1 +8.9
15 20.07 ЮВ 5 14 км ясно +27.1 +17.6 56 +31 +39 душно 1015.4 989.2
18 20.07 ЮВ 8 14 км ясно +29.6 +16.5 45 +33 +37 душно 1014.2 987.9 +8.9 +30.7
21 20.07 ЮВ 7 14 км ясно +30.2 +15.2 40 +33 +35 душно 1012.9 986.6
00 21.07 В 5 14 км ясно +26.5 +15.3 50 +29 +30 жарко 1012.3 986.1
03 21.07 ЮВ 4 14 км ясно +23.1 +14.8 60 +27 +27 душно 1011.6 985.6
06 21.07 Ю 2 14 км 5/5 1500 м
[]
+21.6 +16.3 72 +25 +25 комфорт 1011.9 985.9 20
09 21.07 ЮВ 5 14 км 5/0
[]
+21.6 +16.7 74 +26 +26 душно 1011.6 985.6
12 21.07 ЮВ 5 14 км ясно +22.8 +16.1 66 +27 +29 душно 1012.2 986.1 +20.6
18 21.07 ЮВ 6 14 км 9/9 1000 м
[]
+25.7 +16.8 58 +29 +30 душно 1012.8 986.7
21 21.07 В 6 14 км 5/0 2000 м
[]
+27.0 +16.5 53 +31 +33 душно 1012.6 986.5
03 22.07 В 4 14 км ясно +21.6 +12.2 55 +24 +24 комфорт 1013.5 987.3
06 22.07 В 4 14 км слаб. дождь 10/10 600 м
[]
+18.4 +15.3 82 +19 +19 1013.7 987.5 14
09 22.07 С 1 14 км слаб. дождь 9/9 1000 м
[]
+16.5 +15.7 95 +17 +17 1012.3 986.1
12 22.07 СЗ 3 14 км слаб. дождь 5/5 1500 м
[]
+16.9 +15.7 93 +17 +18 984.6
15 22.07 СВ 4 5000 м дождь {осадки} 10/10 300 м
[]
+16.4 +15.7 96 +16 +16 1009.4 983.1 6
21 22.07 ЮВ 4 14 км 10/10 300 м
[]
+20.8 +19.3 91 +25 +25 комфорт 1009.4 983.1 3
00 23.07 ЮВ 4 14 км 9/9 1000 м
[]
+20.9 +18.1 84 +25 +25 комфорт 1011.2 984.9 3

 

Местоположение метеостанции Borden (Канада): широта 44.25 долгота -79.91 высота над уровнем моря 223 м.

В архиве по умолчанию представлена погода в Borden за последнюю неделю. Архивные данные за месяц целиком и за предыдущие месяцы, начиная с января 2011 года, Вы можете получить, выбрав интересующий диапазон дат из раскрывающегося списка и нажав кнопку "Ввод!".


*Определитесь, кто Вы:
робот инопланетянин человек

Внимание! Время в таблицах - всемирное. Для получения местного времени необходимо прибавить поправку, которая в Borden равна -5 ч.

Смотрите также архив погоды в соседних городах и на ближайших метеорологических станциях:

Погода в Egbert (Канада) (11 км)
Погода в Barrie (Канада) (18 км)
Погода в Collingwood (Канада) (37 км)
Погода в Barrie-oro (Канада) (38 км)
Погода в Toronto Buttonville (Канада) (61 км)
Погода в Buttonville (Канада) (61 км)
Погода в Toronto Aes Hq (Канада) (63 км)
Погода в Lagoon City (Канада) (64 км)
Погода в Beausoleil Isl (aut) (Канада) (67 км)
Погода в Toronto (Канада) (68 км)

Пояснения к столбцам:

Ветер - указаны скорость ветра в м/с - средняя за 10 мин, порывы в срок и между сроками (в фигурных скобках) и направление, откуда дует ветер: С - северный, СВ - северо-восточный, В - восточный, ЮВ - юго-восточный, Ю - южный, ЮЗ - юго-западный, З - западный, СЗ - северо-западный.
Видимость - горизонтальная дальность видимости в метрах или километрах. При видимости от 1 до 10 км при отсутствии осадков обычно наблюдается дымка, при ухудшении видимости до 1 км и менее - туман. В сухую погоду видимость может ухудшаться дымом, пылью или мглою.
Явления - указаны атмосферные явления, наблюдавшиеся в срок или в последний час перед сроком; фигурными скобками обозначены явления, наблюдавшиеся между сроками (за 1-3 часа до срока); квадратными скобками обозначены град или гололедные отложения с указанием их диаметра в мм.
Облачность - указаны через наклонную черту общая и нижняя облачность в баллах и высота нижней границы облаков в метрах; квадратными скобками обозначены формы облаков: Ci - перистые, Cs - перисто-слоистые, Cc - перисто-кучевые, Ac - высококучевые, As - высокослоистые, Sc - слоисто-кучевые, Ns - слоисто-дождевые, Cu - кучевые, Cb - кучево-дождевые. Подробнее классификацию облаков см. в Атласе облаков (PDF).
T - Температура воздуха - температура, измеренная на высоте 2 м над землей.
Td - Температура точки росы - температура, при понижении до которой содержащийся в воздухе водяной пар достигнет насыщения.
f - Относительная влажность воздуха - влажноcть воздуха, измеренная на высоте 2 м над землей.
Te - Эффективная температура - температура, которую ощущает одетый по сезону человек в тени. Характеристика душности погоды. При расчете учитывается влияние влажности воздуха и скорости ветра на теплоощущения человека.
Tes - Эффективная температура на солнце - температура, которую ощущает человек, с поправкой на солнечный нагрев. Характеристика знойности погоды. Зависит от высоты солнца над горизонтом, облачности и скорости ветра. Ночью, в пасмурную погоду, а также при ветре 12 м/с и более поправка равна нулю.
P - Атмосферное давление - приведенное к уровню моря атмосферное давление.
Po - Атмосферное давление - измеренное на уровне метеостанции атмосферное давление.
Tmin - Минимальная температура - минимум температуры воздуха на высоте 2 м над землей.
Tmax - Максимальная температура - максимум температуры воздуха на высоте 2 м над землей.
R - Количество осадков - Количество выпавших осадков за период времени, мм. При наведении курсора мыши на число - период времени, за который выпало указанное количество осадков.
R24 - Количество осадков - Количество выпавших осадков за 24 часа, мм.
S - Снежный покров - Высота снежного покрова, см. При наведении курсора мыши на число - состояние снежного покрова и степень покрытия местности в баллах.